{"data":{"norad_id":67910,"intl_designator":"2026-036G","name":"STARLINK-36847","alt_names":[],"object_type":"PAYLOAD","status":"ACTIVE","operator":null,"country":"US","launch_date":"2026-02-22","launch_site_code":"AFETR","launch_vehicle":null,"mission":null,"orbit_class":"UNKNOWN","rcs_meters":null,"size_class":null,"mass_kg":null,"dimensions":null,"purposes":["comms"],"wikipedia_slug":null,"has_3d_model":false,"image_url":null,"decayed_at":null,"tle_current":{"epoch":"2026-05-25T03:29:12.789888Z","epoch_age_seconds":62406,"freshness":"FRESH","line1":"1 67910U 26036G   26145.14528692  .00019781  00000+0  72623-3 0  9993","line2":"2 67910  43.0004 173.6022 0001343 250.0604 110.0103 15.27588923 15412","mean_motion":15.27588923,"eccentricity":0.0001343,"inclination_deg":43.0004,"raan_deg":173.6022,"arg_perigee_deg":250.0604,"mean_anomaly_deg":110.0103,"bstar":0.00072623,"rev_number":1541,"period_min":94.266198079783,"perigee_km":482.10092379328,"apogee_km":483.94383120208,"semimajor_km":6861.1593774977,"source":"CELESTRAK","updated_at":"2026-05-25T13:38:21.738789Z"}}}